CYGNUS NG-19

Last updated on Wed Jan 10 2024 00:02:06 GMT+0000 (Coordinated Universal Time)

1 57488U 23110A 24009.44185305 .00021942 00000+0 31414-3 0 9997 2 57488 51.6443 26.0643 0002674 83.4696 276.6600 15.56114269 24893

Satellite not in orbit

CYGNUS NG-19